Location: Chattahoochee River National Recreation Area
(34.0022°N, 84.2416°W)
Time: 18:37:33
(UTC-04:00)

Daily predictions for brighter satellites

Satellite Brightness Start Highest point End
(mag) Time Altitude Azimuth Time Altitude Azimuth Time Altitude Azimuth
Cosmos 1869 Rocket 3.7 20:34:18 10° N 20:38:44 58° E 20:43:06 10° SSE
USA 186 3.3 20:40:57 10° ESE 20:42:44 16° ENE 20:44:36 10° NNE
ERBS 2.9 20:39:26 10° NNW 20:42:47 45° NE 20:46:07 10° ESE
Cosmos 2227 4.3 20:39:40 10° NNW 20:45:23 66° ENE 20:51:01 10° SSE
Resurs 1-3 4.1 20:42:06 10° SE 20:46:12 41° ENE 20:50:19 10° N
Cosmos 1455 2.7 20:45:41 10° SSW 20:49:26 65° W 20:53:11 10° N
HJ-1C 3.6 20:50:28 10° S 20:53:54 78° W 20:57:21 10° NNW
USA 229 DEB 4.4 20:50:54 10° SSE 20:56:32 28° ESE 21:02:14 10° NE
USA 229 4.4 20:51:02 10° SSE 20:56:39 28° ESE 21:02:19 10° NE
FENGYUN 3A 4.0 20:51:48 10° S 20:57:08 71° WSW 21:02:29 10° NNW
Cosmos 2242 Rocket 3.7 20:58:35 10° S 21:03:00 57° E 21:07:23 10° NNE
Cosmos 220 Rocket 4.2 21:01:07 10° N 21:05:32 57° ENE 21:09:53 10° SSE
Cosmos 1939 Rocket 4.3 21:04:38 13° ESE 21:06:55 20° ENE 21:09:54 10° NNE
Cosmos 1992 Rocket 4.0 21:02:36 10° S 21:07:45 64° ESE 21:12:56 10° NNE
Cosmos 1486 Rocket 4.3 21:03:08 10° NNW 21:08:21 69° WSW 21:13:35 10° S
Cosmos 2279 Rocket 4.2 21:02:56 10° SSE 21:08:55 50° E 21:14:54 10° NNE
Cosmos 2195 Rocket 4.5 21:04:16 10° N 21:10:20 64° E 21:16:26 10° SSE
Intercosmos 25 Rocket 3.1 21:07:54 10° S 21:10:59 54° E 21:14:39 10° NNE
Cosmos 1627 Rocket 4.5 21:06:14 10° N 21:12:22 65° E 21:18:25 10° SSE
Atlas Centaur 2 2.8 21:09:32 10° WSW 21:15:47 58° SSE 21:22:35 14° E
Cosmos 2263 Rocket 2.8 21:12:02 10° N 21:17:13 38° ENE 21:20:53 18° ESE
Lacrosse 4 Rocket 1.5 21:17:57 10° NNW 21:22:19 74° ENE 21:25:38 17° SSE
Helios 1B rocket 2.3 21:19:11 10° NNE 21:23:16 65° ESE 21:27:20 10° S
Cosmos 2322 Rocket 2.9 21:17:54 10° SSW 21:23:25 59° WNW 21:28:58 10° NNE
ALOS 4.1 21:19:21 10° SSW 21:23:27 31° W 21:27:35 10° NW
Resurs 01 Rocket 2.2 21:20:14 10° S 21:24:36 58° W 21:28:59 10° NNW
H-2A R/B 4.3 21:23:47 10° SSW 21:27:24 37° W 21:31:00 10° NNW
SAR-Lupe-4 3.7 21:27:54 23° SE 21:29:57 55° ENE 21:33:28 10° N
COSMOS 2428 3.8 21:29:08 21° ESE 21:30:31 23° E 21:34:53 10° NE
Cosmos 2360 Rocket 2.2 21:26:14 10° S 21:31:45 59° ESE 21:37:19 10° NNE
Cosmos 1825 2.3 21:32:16 10° N 21:36:04 77° W 21:39:19 14° S
Cosmos 2180 Rocket 4.5 21:31:21 10° S 21:37:41 73° E 21:44:00 10° N
OAO 3 Rocket 3.2 21:32:48 10° W 21:37:42 85° N 21:40:29 26° E
Spot 2 Rocket 4.3 21:32:48 10° S 21:37:44 50° W 21:42:41 10° NNW
Cosmos 1503 Rocket 4.2 21:35:15 10° NNW 21:40:27 70° WSW 21:45:00 13° S
Cosmos 1908 Rocket 4.2 21:40:35 10° NNE 21:44:30 33° E 21:45:06 32° E
Sich 1 Rocket 4.3 21:42:00 10° NNE 21:46:08 35° E 21:46:55 33° ESE
Cosmos 1354 Rocket 4.5 21:41:10 10° NNW 21:46:21 60° WSW 21:50:55 13° S
Cosmos 968 Rocket 4.2 21:42:07 10° N 21:46:56 37° ENE 21:48:27 30° ESE
Cosmos 2322 3.6 21:41:19 10° S 21:46:59 68° ESE 21:52:39 10° NNE
SAR-Lupe-1 3.9 21:45:54 35° SSE 21:47:18 83° ENE 21:50:53 10° N
ATLAS 5 CENTAUR R/B 2.9 21:44:52 10° NNW 21:50:46 48° NE 21:53:35 30° ESE
Cosmos 1408 3.8 21:47:47 10° NNW 21:51:16 41° W 21:54:20 12° SSW
SL-16 R/B 4.0 21:48:28 10° SW 21:53:31 33° WNW 21:58:36 10° N
Cosmos 2026 Rocket 4.5 21:50:24 10° NNW 21:56:29 59° W 22:02:26 10° S
ARGOS 4.4 21:56:21 23° ENE 21:56:56 24° ENE 22:01:07 10° NNE
Meteor 1-29 3.9 21:54:20 10° N 21:57:42 48° WNW 22:01:00 10° SSW
Envisat 3.0 21:54:21 21° S 21:57:50 78° WSW 22:02:56 10° NNW
H-2A R/B 3.9 21:59:46 14° ENE 21:59:46 14° ENE 22:01:50 10° NE
Cosmos 1867 4.1 21:54:36 10° NNW 21:59:49 45° ENE 22:01:17 36° E
USA 234 3.7 21:56:41 27° E 21:59:58 49° NE 22:06:13 10° NNW
Cosmos 1733 Rocket 3.7 21:57:53 10° NNW 22:02:15 56° W 22:05:12 20° SSW
Okean 1-7 3.7 22:08:38 38° ENE 22:08:38 38° ENE 22:12:01 10° NNE
Helios 1A 4.1 22:05:51 18° SSW 22:08:37 41° W 22:12:39 10° NNW
Cosmos 2333 4.4 22:08:24 44° SE 22:09:09 46° ESE 22:14:38 10° NE
Cosmos 2333 Rocket 4.1 22:13:24 14° ENE 22:13:24 14° ENE 22:14:34 10° NE
Okean 2 Rocket 4.5 22:07:11 10° NNE 22:10:03 25° NE 22:10:03 25° NE
SEDSat Delta rocket 3.5 22:09:52 10° W 22:15:04 67° S 22:16:15 53° SE
CZ-4B DEB 4.3 22:16:49 29° WSW 22:17:03 29° W 22:19:45 10° NW
Cosmos 2278 Rocket 4.4 22:16:23 10° NE 22:17:18 10° NE 22:17:43 10° NE
BREEZE-M DEB (TANK) 4.3 21:58:30 10° NW 22:18:40 86° NE 22:20:45 46° SE
Cosmos 1844 Rocket 3.8 22:14:29 10° N 22:19:07 26° ENE 22:19:16 26° ENE
YAOGAN 6 2.9 22:21:30 67° NW 22:21:30 67° NW 22:24:44 10° NNW
ERS-1 Rocket 2.8 22:22:03 61° SSE 22:22:56 84° ENE 22:27:59 10° NNW
MetOp-A 4.1 22:25:28 59° ESE 22:25:57 62° ENE 22:31:15 10° N
SeaSat 1 3.7 22:27:56 28° NE 22:27:56 28° NE 22:31:50 10° N
Cosmos 1703 Rocket 3.8 22:27:01 51° SW 22:27:57 67° W 22:32:22 10° N
Milstar 3 3.3 22:23:47 10° W 22:30:45 40° SSW 22:31:41 38° S
Cosmos 2219 Rocket 3.1 22:37:34 33° NE 22:37:34 33° NE 22:40:55 10° NNE
NOSS 3-1 (C) 3.4 22:42:32 57° ENE 22:42:32 57° ENE 22:47:41 10° NE
Cosmos 2266 Rocket 4.1 22:39:04 10° N 22:45:22 73° W 22:47:08 49° SSW
SPOT 1/Viking Rocket 4.2 22:47:41 45° NE 22:47:41 45° NE 22:51:49 10° N
Cosmos 2221 Rocket 4.2 22:48:14 52° WNW 22:48:14 52° WNW 22:52:25 10° N
SPOT 5 3.2 22:50:39 58° N 22:50:39 58° N 22:54:25 10° N
NOSS 3-1 (A) 4.5 23:00:30 32° NE 23:00:30 32° NE 23:03:47 10° NE
Cosmos 1777 Rocket 4.3 22:53:36 10° NNW 22:58:03 64° N 22:58:03 64° N
Cosmos 2263 Rocket 3.9 22:56:31 10° NW 23:00:50 23° WSW 23:02:37 20° SW
Atlas Centaur 2 2.8 22:58:07 10° W 23:05:13 67° S 23:05:13 67° S
H-2A R/B 4.3 23:14:15 19° NNE 23:14:15 19° NNE 23:15:39 10° N
Meteor 1-10 Rocket 4.5 23:12:10 71° NW 23:12:10 71° NW 23:17:42 10° N
MOS 1-B Rocket 4.0 23:12:55 71° W 23:12:55 71° W 23:18:18 10° NNW
COSMOS 2428 3.9 23:10:54 19° WSW 23:14:27 40° WNW 23:19:48 10° N
Cosmos 1553 Rocket 4.5 23:17:12 52° NNE 23:17:12 52° NNE 23:21:54 10° N
CZ-4C R/B 3.7 23:17:37 10° NNW 23:24:20 39° NE 23:24:27 39° NE
ATLAS 5 CENTAUR R/B 3.9 23:30:07 10° NW 23:35:10 27° WSW 23:35:10 27° WSW
ARGOS 4.5 23:37:52 34° WNW 23:37:52 34° WNW 23:41:51 10° NNW
Terra 3.8 23:40:43 25° N 23:40:43 25° N 23:42:43 10° N
H-2A R/B 3.5 23:40:23 33° NW 23:40:23 33° NW 23:43:13 10° NNW
USA 234 4.1 23:44:02 38° WSW 23:44:02 38° WSW 23:49:03 10° WNW
Cosmos 2237 Rocket 3.7 23:55:50 32° N 23:55:50 32° N 23:58:53 10° NNE
Cosmos 2333 Rocket 3.5 23:55:19 37° NW 23:55:19 37° NW 23:59:34 10° N
